Wind_Speed
7 8 8 8 8 8 8 7 6 5 5 4 3 2 1 2 3 4 5 6 7 8 9 9 10 10 10 11 11 12 13 14 15 16 16 16 16 15 16 16 15 15 15
7 8 8 8 8 8 8 8 7 6 5 4 3 2 1 1 2 4 5 5 6 7 8 9 10 10 10 10 11 12 13 14 15 16 16 16 15 14 15 16 17 17 17
8 8 8 8 8 9 8 8 7 7 6 6 5 3 2 2 2 3 4 5 6 6 7 8 9 11 10 10 11 12 13 14 14 16 16 15 16 16 16 17 17 17 18
8 8 8 8 8 8 8 8 7 7 7 6 5 4 4 3 3 3 4 4 5 6 6 8 9 10 10 10 10 11 11 11 12 14 15 16 16 17 17 17 18 18 18
7 8 7 8 8 8 8 8 7 7 7 6 6 5 5 4 4 4 4 4 5 5 7 8 8 9 9 9 10 10 11 11 12 13 15 16 16 16 17 18 19 19 19
7 7 7 7 8 8 8 8 8 7 7 7 7 6 5 5 4 4 5 5 5 5 6 7 8 9 9 10 10 10 11 12 13 14 14 16 16 17 17 19 20 20 19
6 7 7 7 7 7 8 8 8 8 8 8 7 7 6 6 6 5 5 5 5 6 6 7 8 10 11 11 11 11 11 12 13 14 15 16 16 17 17 18 20 20 19
6 6 6 6 7 7 7 7 7 7 8 8 8 7 7 7 6 7 6 6 6 6 7 7 7 9 11 12 12 12 12 12 13 14 14 14 15 17 17 18 19 20 21
5 6 6 6 6 6 7 7 7 7 8 8 8 7 7 7 7 7 7 7 7 6 7 7 8 9 10 12 13 13 14 14 15 15 16 16 16 16 17 18 19 20 21
6 6 6 6 6 6 6 7 7 8 8 8 8 8 8 8 8 8 8 8 8 8 8 9 9 9 10 12 13 14 15 15 15 15 16 16 17 17 18 19 19 20 21
6 6 6 7 7 7 7 7 8 9 9 9 9 9 9 9 9 10 10 10 10 10 10 10 10 11 11 12 12 14 15 16 16 16 17 17 18 18 18 19 20 21 21
7 7 7 7 8 8 8 9 9 9 10 9 10 10 11 11 11 12 12 12 11 11 11 11 12 12 12 12 12 13 14 15 16 16 17 18 19 20 20 20 20 21 22
7 8 8 8 8 8 9 9 10 10 10 10 11 12 12 12 13 13 14 13 13 13 13 12 12 13 13 14 14 14 15 15 16 16 17 18 19 21 21 21 21 21 22
9 9 9 9 9 9 9 9 10 10 11 11 12 13 13 13 14 15 15 14 14 14 14 14 14 14 15 15 15 16 16 17 17 18 18 19 20 21 22 22 23 24 24
10 10 10 9 9 10 10 10 11 11 12 12 13 13 14 14 15 15 16 16 16 16 15 15 15 15 15 16 17 17 18 18 18 19 19 20 22 22 22 23 24 25 25
12 11 11 11 11 11 11 11 12 12 13 13 14 14 15 15 15 16 16 16 16 17 17 16 16 15 16 18 18 19 19 19 20 20 21 22 23 23 23 24 24 25 26
13 13 13 12 12 12 12 12 13 13 14 14 15 15 15 16 16 16 17 17 17 17 17 17 17 17 17 18 18 19 20 20 21 21 21 22 23 24 24 24 25 27 27
14 14 14 14 14 14 14 14 14 14 15 15 15 16 16 17 17 18 18 18 18 18 18 18 18 19 19 19 19 19 20 20 21 22 22 23 23 24 25 26 26 27 28
15 15 16 15 15 15 16 16 16 16 16 16 17 17 18 18 19 19 20 20 20 20 20 19 19 20 20 20 19 19 20 20 21 22 23 24 25 26 27 28 29 29 30
17 17 17 17 17 17 17 17 17 17 18 18 18 19 19 20 20 21 21 21 21 22 22 22 21 21 21 21 21 21 22 22 23 24 25 26 26 27 28 29 30 30 30
18 18 18 18 18 18 18 19 19 19 20 20 20 20 21 22 22 23 23 23 24 24 24 24 24 24 24 24 24 24 24 24 25 26 27 28 29 29 29 30 31 31 32
19 19 19 19 19 19 20 20 20 21 21 22 22 22 23 24 24 25 25 26 26 27 27 27 27 27 27 27 27 27 28 28 29 29 30 31 32 32 32 33 33 33 34
20 20 20 20 20 21 21 22 22 22 23 24 24 25 26 26 27 27 27 28 28 29 29 29 29 29 30 30 30 30 30 31 31 32 33 33 34 34 34 35 35 36 36
21 21 22 22 23 23 23 24 24 25 25 26 27 27 28 29 29 30 30 30 31 31 32 32 32 32 32 32 33 33 34 34 34 34 35 35 35 36 36 37 37 38 39
23 23 24 24 24 25 25 26 26 26 27 28 29 30 30 31 32 33 33 34 34 34 34 34 34 35 35 35 36 36 36 37 36 37 37 38 38 38 38 39 39 40 41
25 25 25 26 26 26 27 28 28 29 29 30 31 32 33 34 34 35 36 36 37 37 36 37 37 37 37 37 38 38 38 38 39 39 39 40 40 41 41 41 42 42 43
Wind_Direction
11 12 14 15 15 14 14 17 16 12 10 9 3 347 296 257 247 246 244 246 248 246 238 232 232 234 238 242 245 248 248 245 242 239 237 237 238 235 229 226 221 220 219
10 11 12 15 17 17 18 21 23 24 22 22 20 11 348 291 258 254 251 250 250 247 242 239 237 235 240 245 249 252 252 249 244 240 237 235 235 230 228 227 223 221 220
8 8 10 15 19 20 21 25 27 27 28 27 22 12 357 333 297 279 266 261 259 254 243 241 242 241 245 250 255 256 254 250 242 236 233 232 232 230 228 227 228 227 223
6 10 14 17 17 19 20 20 22 21 21 21 17 9 356 339 317 299 284 275 265 256 248 243 244 247 248 252 259 260 251 248 240 233 231 232 233 233 232 231 230 229 227
5 11 13 13 14 16 16 17 18 16 13 12 7 360 351 340 323 308 294 289 274 258 254 249 247 252 251 253 257 258 252 247 241 236 235 235 236 235 234 232 231 232 231
1 5 9 9 11 13 14 15 15 13 11 10 8 1 356 348 330 313 308 297 283 269 261 252 251 253 255 256 258 260 257 251 246 241 240 240 238 235 233 233 232 232 232
357 359 1 3 4 8 9 11 15 17 14 7 5 2 0 358 353 337 322 304 288 280 274 265 260 258 258 257 258 262 261 257 252 244 240 240 240 238 236 235 233 234 234
349 352 355 358 358 359 2 6 9 11 8 6 3 360 359 0 356 348 335 319 306 296 288 282 272 264 262 261 262 263 261 262 259 252 246 242 239 239 240 238 237 239 238
339 345 346 347 349 351 354 356 356 356 356 356 356 354 353 352 347 344 337 324 312 305 298 293 286 273 268 266 265 264 263 261 260 256 252 248 244 242 242 239 239 240 241
323 330 336 336 336 338 341 342 345 347 346 347 349 349 347 345 344 341 334 324 313 306 302 297 291 283 277 273 271 267 263 261 259 253 252 251 246 243 243 241 241 242 243
315 320 326 328 327 330 333 333 336 338 340 339 340 341 340 338 335 332 330 324 315 306 301 298 296 290 284 279 275 269 264 261 258 256 254 252 249 247 247 247 245 246 246
311 314 316 320 322 325 328 329 329 331 333 335 335 335 337 336 333 330 326 321 315 308 304 300 296 292 287 282 276 271 266 262 259 257 255 252 251 250 249 249 249 249 249
304 306 309 313 315 318 322 326 329 329 330 331 331 332 331 331 330 327 324 321 316 310 303 299 293 291 288 284 279 274 269 262 259 256 255 255 253 252 253 253 252 252 252
295 297 301 306 309 312 316 321 325 327 326 325 325 325 325 325 325 325 323 320 317 312 304 297 294 289 287 284 280 276 271 265 263 259 257 256 255 253 253 255 255 255 256
294 294 295 298 302 306 310 314 319 321 322 323 323 322 321 321 322 322 321 318 316 312 307 299 294 291 287 284 280 276 272 267 264 262 260 258 257 255 255 257 255 255 255
288 292 293 292 296 300 304 308 312 315 318 320 320 321 321 321 320 320 319 319 316 313 310 304 297 293 288 287 283 277 272 267 264 263 262 261 260 259 259 258 256 255 255
284 286 290 290 292 295 300 303 305 309 312 315 317 318 318 319 319 318 318 318 318 316 313 308 303 298 293 289 285 277 272 270 266 264 263 261 261 261 261 260 259 257 256
282 284 286 288 289 292 297 298 301 305 308 311 313 315 315 315 316 316 315 314 314 314 312 309 304 301 298 293 289 282 276 272 270 267 266 264 263 262 262 263 262 261 260
279 281 284 286 286 289 292 294 298 301 304 306 309 311 313 313 313 313 312 311 310 310 309 307 304 300 299 295 291 287 282 278 275 272 269 266 265 264 264 264 264 264 262
278 280 282 283 286 288 290 292 294 297 300 302 304 306 308 311 311 311 310 309 308 308 307 304 302 299 297 294 291 287 284 281 278 275 273 270 269 267 266 265 265 265 263
279 282 283 284 286 288 289 291 292 295 297 300 301 303 304 307 308 308 308 306 305 305 304 302 300 297 293 291 290 288 285 283 280 278 275 272 270 269 268 267 266 265 262
280 282 283 284 285 287 288 290 291 293 295 297 299 301 302 304 305 305 305 305 304 302 301 300 298 296 293 291 290 288 285 283 281 278 276 274 272 271 270 269 268 267 265
280 282 283 284 286 286 287 290 291 292 293 295 297 299 300 301 302 303 303 303 303 302 300 298 297 295 293 291 289 287 285 284 281 279 277 275 274 273 272 271 270 269 268
281 282 283 284 285 285 286 288 290 292 293 294 296 297 298 298 299 300 301 301 301 300 299 298 296 294 292 290 289 287 285 284 282 280 277 276 274 274 273 271 271 271 270
280 282 283 285 285 285 286 287 289 291 292 293 294 296 297 298 298 299 299 300 300 299 297 296 295 294 292 290 288 287 286 284 283 281 279 276 275 274 273 272 271 271 271
281 282 284 285 286 286 287 288 288 290 291 292 293 295 296 297 298 298 299 299 299 298 297 295 294 293 291 290 289 287 287 285 284 282 280 278 276 275 274 272 273 272 272
Height
5897 5895 5893 5891 5889 5887 5885 5883 5881 5880 5879 5878 5877 5877 5876 5876 5876 5876 5877 5877 5877 5877 5878 5878 5878 5879 5879 5880 5880 5880 5880 5880 5880 5880 5881 5882 5883 5881 5883 5885 5887 5888 5890
5898 5896 5894 5892 5890 5888 5885 5884 5882 5880 5879 5878 5877 5877 5876 5876 5876 5875 5875 5875 5876 5876 5876 5876 5877 5877 5877 5877 5877 5876 5876 5876 5876 5877 5878 5879 5880 5880 5881 5883 5885 5887 5888
5898 5896 5894 5892 5890 5888 5886 5884 5883 5881 5880 5879 5878 5877 5876 5875 5875 5874 5874 5874 5874 5874 5874 5874 5875 5875 5875 5875 5874 5872 5872 5871 5870 5872 5875 5877 5878 5879 5880 5881 5883 5884 5886
5898 5896 5894 5892 5890 5889 5887 5885 5883 5882 5881 5879 5878 5877 5876 5875 5874 5874 5873 5873 5873 5873 5873 5872 5873 5873 5873 5873 5872 5870 5869 5868 5867 5869 5872 5874 5876 5877 5878 5879 5881 5882 5884
5898 5896 5894 5893 5891 5889 5887 5886 5884 5883 5881 5880 5878 5877 5876 5875 5874 5873 5872 5872 5871 5871 5871 5871 5871 5871 5871 5871 5870 5869 5868 5868 5868 5869 5871 5872 5873 5874 5876 5877 5878 5880 5882
5898 5896 5895 5893 5891 5890 5888 5886 5885 5883 5881 5880 5878 5877 5876 5874 5873 5872 5872 5871 5870 5870 5869 5869 5869 5869 5869 5869 5869 5868 5868 5867 5867 5868 5869 5870 5871 5872 5873 5874 5876 5877 5879
5898 5896 5895 5893 5892 5890 5888 5887 5885 5884 5882 5880 5879 5877 5876 5874 5873 5872 5871 5870 5869 5868 5868 5867 5867 5867 5867 5866 5866 5866 5866 5866 5865 5866 5866 5867 5868 5869 5870 5871 5872 5874 5876
5897 5896 5895 5893 5892 5890 5889 5887 5886 5884 5882 5881 5879 5877 5876 5875 5873 5871 5870 5869 5868 5867 5866 5865 5864 5864 5864 5863 5863 5863 5863 5863 5863 5863 5864 5864 5865 5866 5867 5868 5870 5871 5873
5897 5895 5894 5893 5891 5890 5889 5887 5886 5884 5883 5881 5879 5878 5876 5874 5872 5871 5869 5868 5866 5865 5864 5863 5862 5862 5861 5860 5860 5860 5860 5860 5860 5860 5861 5861 5862 5863 5864 5865 5867 5868 5869
5896 5895 5894 5892 5891 5890 5888 5887 5885 5884 5882 5880 5879 5877 5875 5873 5872 5870 5868 5866 5864 5863 5862 5861 5860 5859 5858 5856 5856 5856 5855 5856 5856 5857 5857 5858 5858 5859 5861 5862 5863 5864 5866
5895 5894 5893 5891 5890 5889 5888 5886 5885 5883 5881 5880 5878 5876 5874 5872 5870 5869 5867 5865 5863 5861 5859 5858 5857 5856 5855 5853 5852 5851 5851 5852 5852 5853 5853 5854 5855 5856 5857 5858 5859 5860 5861
5894 5893 5892 5890 5889 5888 5886 5885 5883 5882 5880 5879 5877 5875 5873 5871 5869 5867 5864 5862 5860 5858 5856 5855 5854 5852 5851 5850 5849 5848 5848 5848 5848 5848 5849 5850 5851 5852 5853 5854 5855 5856 5857
5892 5891 5890 5889 5888 5886 5885 5884 5882 5880 5879 5877 5875 5873 5871 5869 5867 5864 5862 5859 5857 5855 5853 5852 5850 5849 5847 5846 5845 5845 5844 5844 5844 5844 5845 5846 5846 5847 5848 5850 5851 5851 5852
5890 5889 5888 5887 5886 5885 5883 5882 5880 5879 5877 5875 5873 5871 5869 5867 5864 5862 5859 5856 5854 5852 5850 5848 5847 5845 5844 5843 5842 5841 5840 5840 5840 5840 5841 5841 5842 5842 5843 5844 5845 5846 5847
5888 5887 5886 5885 5884 5883 5881 5880 5879 5877 5875 5873 5871 5869 5867 5864 5862 5859 5856 5853 5851 5848 5846 5844 5842 5841 5840 5838 5837 5836 5835 5835 5835 5836 5836 5836 5837 5837 5838 5839 5839 5840 5841
5885 5885 5884 5883 5882 5880 5879 5878 5876 5874 5873 5870 5868 5866 5864 5861 5859 5856 5853 5850 5847 5845 5842 5840 5838 5837 5835 5834 5832 5831 5830 5830 5830 5830 5830 5830 5831 5831 5832 5832 5833 5834 5834
5883 5882 5881 5880 5879 5877 5876 5875 5873 5872 5870 5867 5865 5863 5861 5858 5856 5853 5850 5847 5844 5841 5838 5836 5834 5832 5830 5828 5826 5825 5824 5823 5824 5824 5824 5825 5825 5825 5825 5826 5826 5827 5827
5879 5878 5877 5876 5875 5874 5873 5871 5870 5868 5866 5864 5862 5860 5857 5855 5852 5849 5847 5844 5841 5838 5835 5832 5830 5828 5825 5823 5821 5819 5818 5818 5817 5818 5818 5818 5818 5818 5818 5819 5819 5819 5820
5875 5874 5873 5872 5871 5870 5869 5867 5866 5864 5862 5860 5858 5856 5853 5851 5848 5845 5843 5840 5837 5834 5831 5828 5826 5823 5820 5818 5816 5814 5813 5812 5811 5811 5811 5811 5811 5811 5811 5811 5811 5811 5811
5871 5870 5869 5867 5866 5865 5864 5863 5861 5860 5858 5856 5854 5851 5849 5846 5844 5841 5838 5835 5832 5829 5826 5823 5821 5818 5815 5813 5811 5809 5807 5806 5805 5804 5804 5804 5804 5803 5803 5803 5803 5803 5803
5866 5865 5864 5863 5862 5860 5859 5858 5856 5855 5853 5851 5849 5846 5844 5841 5839 5836 5833 5830 5827 5824 5821 5818 5815 5812 5809 5807 5804 5802 5800 5799 5798 5797 5796 5796 5795 5795 5795 5794 5794 5794 5794
5861 5860 5859 5858 5857 5855 5854 5852 5851 5849 5847 5845 5843 5841 5838 5836 5833 5830 5827 5824 5820 5817 5814 5811 5808 5805 5802 5799 5797 5795 5793 5791 5790 5789 5787 5787 5786 5785 5785 5785 5784 5784 5784
5856 5854 5853 5852 5851 5850 5848 5847 5845 5843 5841 5839 5837 5835 5832 5829 5826 5824 5820 5817 5814 5810 5806 5803 5800 5797 5794 5791 5789 5787 5784 5782 5781 5779 5778 5777 5776 5775 5774 5774 5774 5774 5774
5850 5849 5848 5846 5845 5844 5842 5841 5839 5837 5835 5833 5830 5828 5825 5822 5819 5816 5813 5809 5806 5802 5798 5795 5792 5789 5785 5782 5780 5777 5775 5773 5771 5769 5767 5767 5765 5765 5764 5763 5763 5763 5762
5843 5842 5841 5840 5838 5837 5835 5834 5832 5830 5828 5825 5823 5820 5817 5814 5811 5808 5804 5801 5797 5793 5789 5786 5782 5779 5776 5773 5769 5767 5765 5762 5760 5758 5756 5755 5754 5753 5753 5752 5751 5751 5750
5837 5836 5834 5833 5831 5830 5828 5826 5824 5822 5820 5818 5815 5812 5809 5806 5802 5798 5795 5791 5787 5783 5779 5776 5772 5769 5765 5762 5759 5756 5753 5751 5749 5747 5745 5743 5742 5741 5741 5740 5739 5738 5738